Temperature
11 10 10 10 10 9 9 9 9 9 9 9 9 9 9 9 9 9 8 8 8 8 7 7 6 6 6 6 6 6 6 6 5 5 5 5 5 5 5 5 6 6 6
11 10 10 10 10 9 9 9 9 9 9 9 9 9 9 9 9 9 8 8 8 8 7 7 6 6 6 6 6 6 5 5 5 5 5 5 5 5 5 5 5 5 5
11 10 10 10 10 9 9 9 9 9 9 9 9 9 9 9 9 9 8 8 8 7 7 7 7 6 6 6 5 5 5 5 5 5 5 4 4 4 4 4 4 4 5
10 10 10 10 10 9 9 9 9 9 9 9 9 9 9 9 9 8 8 8 8 7 7 7 7 7 6 6 6 5 5 5 5 4 4 4 4 4 4 4 4 4 4
10 10 10 10 9 9 9 9 9 9 9 9 9 9 9 9 9 8 8 8 7 7 7 7 7 7 6 6 6 6 5 5 4 4 4 3 3 3 3 3 3 3 3
10 10 10 10 9 9 9 9 9 9 9 9 9 9 9 9 8 8 8 7 7 7 7 7 6 6 6 6 6 6 5 5 4 3 3 3 3 3 3 3 3 3 3
11 10 10 10 9 9 9 9 9 9 9 9 9 9 9 9 8 8 8 7 7 7 6 6 6 6 6 6 6 6 5 4 3 3 3 2 2 2 2 2 2 2 2
11 10 10 10 10 9 9 9 9 9 9 9 9 9 9 8 8 8 7 7 7 6 6 6 6 6 6 6 5 5 5 4 3 3 2 2 2 2 2 2 2 2 2
11 10 10 10 9 9 9 9 9 9 9 9 9 9 8 8 8 8 7 7 7 6 6 6 6 5 5 5 5 5 4 4 3 2 2 2 2 1 1 1 1 1 1
11 10 10 10 10 9 9 9 9 9 9 9 9 8 8 8 8 7 7 7 7 6 6 6 5 5 5 5 4 4 4 4 3 2 2 1 1 1 1 1 1 1 1
11 10 10 10 9 9 9 9 9 9 9 9 9 8 8 8 7 7 7 7 7 6 6 6 5 5 4 4 4 3 3 3 3 2 2 1 1 1 0 0 0 0 -0
11 10 10 10 9 9 9 9 9 9 9 9 8 8 8 8 7 7 6 6 6 6 6 6 5 5 4 3 3 3 3 2 2 2 2 1 1 1 0 -0 -0 -1 -1
11 10 10 10 9 9 9 9 9 9 9 8 8 8 8 7 7 6 6 6 5 5 6 5 5 4 3 3 2 2 2 2 1 1 1 1 1 0 -0 -0 -1 -1 -1
12 11 10 10 9 9 9 9 9 9 8 8 8 8 7 7 7 6 6 5 4 4 4 5 4 3 3 2 2 1 1 1 1 0 0 -0 -0 -1 -1 -1 -1 -2 -2
12 11 10 10 9 9 9 9 9 8 8 8 8 7 7 7 6 6 5 5 4 3 3 4 3 3 2 1 1 1 1 0 0 -0 -1 -1 -1 -2 -2 -2 -2 -3 -3
11 11 10 10 9 9 9 9 8 8 8 8 7 7 7 6 6 5 5 4 4 3 2 3 2 2 1 1 0 -0 -0 -1 -1 -1 -1 -1 -2 -2 -3 -3 -3 -3 -4
11 10 10 10 9 9 9 8 8 8 8 7 7 7 6 6 5 5 4 4 3 3 2 2 2 1 1 1 0 -0 -1 -1 -1 -2 -2 -2 -3 -3 -3 -4 -4 -4 -4
10 10 10 9 9 9 8 8 8 8 7 7 7 6 6 6 5 5 4 3 3 2 1 1 1 1 1 0 -0 -1 -1 -2 -2 -2 -2 -3 -3 -4 -4 -4 -5 -5 -5
10 10 9 9 9 8 8 8 8 7 7 7 6 6 6 5 5 4 3 3 2 2 1 0 0 0 -0 -1 -1 -2 -2 -2 -3 -3 -3 -3 -4 -4 -4 -5 -5 -5 -5
9 9 9 9 8 8 8 8 7 7 7 6 6 6 5 5 4 3 3 2 2 1 0 -0 -0 -1 -1 -2 -2 -3 -3 -3 -3 -4 -4 -4 -4 -5 -5 -5 -5 -5 -5
9 9 9 8 8 8 8 7 7 7 6 6 6 5 5 4 3 3 2 2 1 0 -0 -1 -1 -2 -2 -2 -3 -3 -4 -4 -4 -4 -4 -4 -5 -5 -5 -5 -5 -5 -6
9 8 8 8 8 8 7 7 7 6 6 6 5 5 4 4 3 2 2 1 0 -0 -1 -1 -2 -2 -3 -3 -4 -4 -5 -5 -5 -5 -6 -5 -5 -5 -5 -6 -6 -6 -6
8 8 8 8 7 7 7 7 6 6 5 5 5 4 4 3 2 2 1 0 -0 -1 -1 -2 -3 -3 -3 -4 -4 -5 -5 -6 -6 -6 -6 -6 -6 -6 -6 -6 -6 -6 -7
8 8 7 7 7 7 6 6 6 5 5 4 4 3 3 2 2 1 0 -0 -1 -1 -2 -3 -3 -3 -4 -4 -5 -6 -6 -6 -6 -6 -7 -7 -6 -6 -6 -6 -6 -7 -7
7 7 7 7 7 6 6 5 5 5 4 4 3 3 2 2 1 0 -1 -1 -1 -2 -2 -3 -4 -4 -4 -5 -6 -6 -6 -7 -7 -7 -7 -8 -7 -7 -7 -7 -7 -7 -8
7 7 7 6 6 6 5 5 4 4 4 3 3 2 1 1 0 -1 -1 -2 -2 -2 -3 -3 -4 -4 -5 -5 -6 -7 -7 -7 -8 -8 -8 -8 -8 -9 -9 -8 -7 -8 -8
Wind_Speed
6 6 5 5 4 4 3 2 2 2 3 4 4 4 4 4 4 4 4 5 6 7 7 8 8 8 8 9 10 11 11 11 12 12 12 12 12 13 13 14 14 14 14
9 7 5 5 5 5 4 3 2 2 2 3 4 4 4 4 4 4 5 6 7 7 7 8 8 8 9 9 10 10 11 11 11 11 12 12 12 13 13 13 14 14 15
12 9 5 5 6 6 5 4 3 3 2 2 3 4 4 4 4 4 5 6 7 8 8 8 8 9 10 10 10 11 11 11 11 11 11 12 12 13 13 14 14 14 15
14 11 6 5 7 7 6 4 2 2 2 2 2 3 3 4 4 4 5 6 7 8 8 8 9 9 10 10 11 11 11 11 11 11 12 12 13 13 14 14 15 15 15
16 12 8 7 9 7 4 3 2 2 2 2 2 3 3 3 3 4 5 5 6 7 7 8 9 9 10 10 11 11 11 11 11 11 12 12 13 14 14 15 15 15 16
16 13 9 9 9 5 4 3 3 3 2 2 3 3 3 3 3 3 3 4 5 6 7 7 8 8 9 10 11 11 11 11 11 12 12 13 14 14 15 15 15 16 16
16 13 8 8 7 6 6 6 4 3 2 1 3 3 3 3 3 3 3 3 4 5 5 6 7 7 8 9 10 11 11 11 12 12 13 14 14 15 16 16 16 16 17
16 14 10 8 7 6 6 6 4 4 2 2 3 2 2 3 2 2 2 2 2 3 4 4 6 6 7 8 9 10 11 12 13 13 14 15 16 16 17 17 17 17 18
16 15 13 10 9 8 7 7 6 6 4 1 2 3 3 3 2 3 2 2 2 1 2 4 5 6 6 6 8 9 11 12 14 15 16 16 17 17 18 18 18 19 19
15 16 15 13 10 8 8 7 6 5 5 3 1 1 2 3 2 2 3 2 2 2 3 3 5 5 5 5 7 10 11 13 15 16 17 18 18 19 19 19 20 20 20
12 14 14 12 10 8 8 8 7 6 5 5 4 3 2 2 2 2 3 4 3 3 3 3 4 4 4 5 7 9 12 14 16 17 18 18 19 20 20 21 21 21 21
8 11 12 11 10 8 9 8 8 8 6 5 4 4 4 3 3 3 4 3 3 4 3 3 3 3 4 5 7 10 13 15 17 18 18 19 20 20 21 22 22 22 23
8 12 11 10 9 9 10 9 8 8 7 7 6 4 4 4 3 4 3 2 2 3 3 3 3 5 5 6 8 11 13 16 18 19 19 20 20 21 21 22 22 23 23
12 12 12 11 11 11 10 9 7 7 7 7 7 6 4 4 4 4 4 3 1 3 3 4 3 4 6 7 10 12 13 17 19 19 20 20 21 21 22 22 23 23 23
9 12 12 12 11 11 10 10 7 7 7 7 6 6 4 3 4 3 3 4 4 3 4 4 3 3 6 9 11 12 14 17 19 20 21 21 21 21 22 23 23 23 24
11 12 12 12 11 10 10 10 7 7 7 6 5 6 5 3 3 3 3 3 4 4 4 4 4 4 6 9 13 14 15 18 19 20 21 22 22 22 22 23 23 24 24
12 13 13 13 12 11 10 10 9 9 8 7 6 6 6 5 4 4 3 3 4 4 6 5 4 4 4 6 11 13 15 15 16 19 21 22 22 23 23 23 24 24 24
12 13 12 12 12 11 11 11 11 10 9 9 8 7 6 5 5 4 4 5 5 5 5 7 4 4 5 6 7 8 11 13 14 18 21 22 22 23 23 24 24 23 23
11 11 11 12 12 11 11 11 10 10 10 9 8 8 7 6 6 5 5 5 5 5 5 5 6 4 4 5 5 6 8 9 13 16 19 19 21 22 23 23 23 23 23
12 11 11 11 11 11 10 10 9 9 8 7 7 7 7 7 7 6 6 6 5 5 5 5 6 5 5 5 4 6 7 5 7 11 15 17 20 21 22 23 23 23 22
11 10 10 9 9 9 9 10 9 9 8 7 6 6 6 8 9 7 5 5 5 4 4 5 6 5 5 5 5 5 7 8 7 6 6 9 11 11 15 19 21 21 22
9 9 9 10 9 8 12 15 11 8 8 7 6 5 5 7 9 10 11 9 7 5 5 5 5 6 7 6 6 6 7 8 6 3 4 7 6 8 9 13 19 21 22
9 9 9 9 9 8 12 14 14 8 7 7 6 5 4 5 6 5 8 9 9 11 10 6 6 7 7 6 6 7 7 8 8 5 5 7 5 7 9 15 20 20 19
9 8 8 8 7 7 11 13 13 8 6 6 6 6 5 5 5 5 5 5 6 7 8 6 6 8 7 7 6 6 7 7 6 6 4 6 5 5 8 11 17 16 17
7 7 7 8 7 6 10 11 11 6 5 5 4 4 5 5 8 8 4 5 6 6 9 11 12 12 13 14 11 5 5 6 8 5 3 4 4 5 5 5 10 14 16
7 7 6 6 6 6 8 10 10 5 5 4 3 3 5 6 8 8 4 5 7 6 5 5 6 8 8 9 11 5 4 6 6 5 2 2 3 4 5 3 4 8 11
Wind_Direction
172 175 177 174 175 170 153 131 94 66 57 56 55 52 41 31 28 27 28 35 38 37 33 30 26 25 26 24 20 15 13 7 4 1 358 354 351 349 347 345 343 340 338
178 176 177 178 185 185 175 158 140 105 75 70 53 46 42 36 37 50 55 52 49 49 42 35 30 26 21 18 13 11 6 3 359 356 354 352 350 347 344 341 340 338 336
184 179 176 183 189 182 164 144 124 96 80 65 48 39 37 36 47 61 71 67 59 51 46 39 30 24 16 10 6 4 360 356 353 351 349 348 347 345 342 340 338 336 334
187 180 178 186 184 171 159 140 122 101 78 65 46 24 28 36 46 65 80 78 71 59 48 42 36 25 14 8 2 358 354 350 348 347 347 346 343 340 338 336 335 333 332
188 183 183 183 175 163 155 141 111 117 107 74 55 39 24 29 38 69 78 81 79 69 58 48 39 27 14 5 359 354 350 347 344 343 343 340 338 336 333 333 332 331 329
187 183 180 176 168 155 152 144 126 98 98 100 71 45 23 20 46 57 64 78 79 72 63 50 38 25 13 5 359 352 348 345 342 340 338 337 335 333 331 330 329 328 327
185 182 175 170 169 172 170 155 133 120 90 86 82 32 7 23 49 41 47 68 64 60 56 44 28 15 6 1 358 352 347 343 340 337 335 333 331 329 328 327 326 325 324
185 185 177 176 174 167 161 159 143 131 110 88 117 95 8 342 349 15 14 45 35 34 29 17 7 1 358 357 353 350 343 339 336 333 331 329 327 325 323 323 322 321 320
186 184 183 177 176 174 176 174 162 151 149 112 106 139 150 230 289 320 337 358 347 342 339 339 343 347 352 354 352 346 342 337 332 329 327 325 323 321 319 320 319 317 317
186 185 182 179 177 176 175 175 167 156 145 155 135 97 139 156 164 293 309 312 315 294 301 315 321 332 348 356 352 343 339 335 330 326 323 321 319 318 316 316 316 314 313
185 185 182 178 177 177 174 168 164 163 157 157 160 152 134 96 126 174 264 303 319 293 285 288 293 306 329 348 347 340 338 333 328 324 321 319 317 315 314 313 313 312 310
185 184 181 180 178 175 174 173 169 169 166 158 160 160 161 164 182 180 219 258 283 291 296 287 269 273 296 319 330 331 330 328 324 321 318 317 315 313 312 311 310 309 307
189 190 183 181 178 176 172 167 167 172 169 167 171 177 179 178 163 165 178 225 264 291 304 295 261 262 280 299 312 319 322 322 320 318 315 313 313 311 310 309 308 306 305
192 185 182 180 176 172 170 166 167 173 169 173 176 173 178 186 173 170 171 170 255 293 287 274 285 262 272 288 298 308 311 313 314 312 311 310 309 308 308 308 306 305 304
180 176 177 177 174 172 170 167 173 173 169 175 176 178 180 187 182 183 174 168 175 245 275 268 275 280 275 287 294 300 300 304 308 309 308 307 306 306 306 306 305 304 303
172 172 175 176 174 174 172 170 169 169 167 173 172 176 186 186 182 183 186 187 185 195 246 259 254 265 282 288 296 301 298 303 306 307 307 306 304 304 305 304 304 303 302
172 175 178 177 177 177 175 174 174 170 173 175 177 184 195 184 185 191 189 194 202 195 241 270 255 266 272 277 292 294 296 294 295 302 304 304 303 303 304 304 305 304 303
176 177 175 176 179 179 177 178 178 176 179 183 187 186 199 190 197 198 200 210 215 210 222 267 280 272 265 273 279 287 293 292 291 297 301 302 303 304 305 306 305 305 304
173 172 173 178 179 179 180 182 179 180 184 188 187 191 198 191 207 212 213 218 222 226 222 248 274 270 272 275 285 286 284 285 291 295 298 300 302 304 304 306 306 307 307
171 173 177 179 178 177 178 178 177 179 183 187 189 193 195 199 211 214 218 222 223 229 232 246 268 276 272 272 272 284 293 281 287 292 292 296 299 303 304 306 307 307 307
171 171 170 171 171 173 179 176 177 178 180 185 191 199 205 212 220 220 224 222 216 226 235 249 266 279 281 285 278 275 290 294 285 272 278 288 293 293 295 300 304 303 303
164 163 169 171 173 182 184 183 176 176 180 186 197 207 216 222 234 241 248 247 236 233 237 243 261 270 276 273 276 280 288 299 300 266 273 286 282 285 289 291 297 302 304
161 165 170 171 178 183 181 185 182 174 179 187 193 199 213 225 238 238 253 259 259 261 261 258 257 263 271 269 276 282 280 283 285 285 286 285 274 279 287 294 302 305 307
164 169 170 172 172 178 179 182 180 170 175 186 194 198 208 223 229 236 233 242 250 256 262 262 248 257 261 266 263 275 284 286 276 272 262 278 278 278 292 293 298 304 312
159 162 164 164 167 176 179 179 170 164 177 193 197 199 207 222 247 256 243 248 261 265 272 276 278 282 289 295 301 304 302 300 300 290 249 258 283 295 288 280 290 305 313
153 150 148 159 165 171 179 178 169 162 176 187 195 211 227 241 259 263 243 241 263 267 262 280 286 293 297 302 308 302 281 287 293 292 268 270 283 310 304 279 280 294 303
Height
1538 1539 1541 1542 1543 1545 1546 1546 1547 1547 1547 1546 1546 1545 1545 1544 1543 1543 1542 1542 1541 1540 1540 1539 1538 1537 1536 1535 1534 1532 1531 1529 1528 1526 1525 1523 1522 1520 1519 1518 1516 1515 1514
1537 1538 1540 1541 1543 1544 1545 1546 1546 1546 1546 1546 1545 1545 1544 1543 1543 1542 1541 1541 1540 1539 1539 1538 1537 1536 1535 1534 1533 1531 1529 1528 1526 1525 1523 1521 1520 1518 1517 1515 1514 1512 1511
1535 1537 1539 1540 1542 1543 1544 1545 1545 1545 1545 1545 1544 1544 1543 1542 1541 1541 1540 1540 1539 1538 1538 1537 1536 1535 1534 1532 1531 1530 1528 1526 1525 1523 1521 1520 1518 1516 1515 1513 1511 1510 1508
1533 1535 1537 1539 1540 1541 1543 1543 1544 1544 1544 1544 1543 1543 1542 1541 1540 1540 1539 1539 1538 1537 1537 1536 1535 1533 1532 1531 1529 1528 1526 1524 1523 1521 1520 1518 1516 1514 1513 1511 1509 1507 1506
1531 1533 1535 1537 1538 1540 1541 1542 1542 1543 1543 1543 1542 1541 1541 1540 1539 1539 1538 1538 1537 1536 1535 1534 1533 1532 1530 1529 1527 1525 1524 1522 1521 1519 1517 1515 1514 1512 1510 1508 1507 1505 1503
1527 1530 1532 1534 1536 1538 1539 1540 1541 1541 1541 1541 1541 1540 1539 1539 1538 1538 1537 1537 1536 1535 1534 1533 1532 1530 1528 1527 1525 1523 1521 1520 1518 1517 1515 1513 1511 1509 1507 1506 1504 1502 1500
1524 1527 1529 1531 1533 1535 1536 1538 1539 1539 1539 1539 1539 1539 1538 1537 1537 1536 1536 1535 1535 1534 1533 1531 1530 1528 1526 1525 1523 1521 1519 1517 1516 1514 1513 1511 1508 1506 1505 1503 1500 1498 1496
1520 1523 1525 1528 1530 1532 1534 1535 1536 1537 1537 1538 1538 1537 1537 1537 1535 1535 1534 1534 1533 1532 1531 1530 1528 1526 1524 1522 1520 1518 1516 1514 1513 1511 1510 1508 1505 1503 1501 1499 1497 1494 1492
1515 1519 1522 1524 1527 1529 1530 1532 1533 1534 1535 1535 1535 1536 1535 1534 1534 1533 1532 1532 1531 1530 1529 1527 1526 1524 1522 1520 1518 1515 1513 1511 1509 1508 1506 1504 1502 1500 1497 1495 1493 1490 1488
1511 1514 1517 1520 1523 1525 1527 1529 1530 1531 1532 1533 1533 1533 1534 1533 1532 1531 1530 1529 1528 1527 1526 1525 1523 1521 1519 1517 1515 1512 1510 1508 1506 1503 1501 1499 1497 1495 1492 1490 1487 1485 1482
1506 1509 1513 1516 1519 1521 1523 1525 1526 1528 1529 1530 1530 1530 1530 1530 1529 1529 1527 1526 1526 1525 1523 1522 1520 1518 1516 1514 1511 1509 1507 1504 1502 1499 1496 1494 1491 1489 1487 1484 1482 1479 1476
1500 1504 1508 1511 1514 1517 1519 1521 1523 1524 1525 1526 1527 1527 1527 1527 1526 1525 1524 1522 1521 1521 1519 1518 1516 1515 1513 1510 1508 1505 1503 1500 1497 1494 1491 1489 1486 1483 1480 1478 1475 1473 1470
1494 1498 1502 1506 1509 1512 1515 1517 1519 1520 1521 1522 1523 1523 1523 1523 1523 1522 1521 1519 1517 1515 1514 1514 1512 1511 1509 1506 1504 1501 1498 1495 1492 1489 1486 1483 1480 1477 1474 1471 1468 1466 1463
1488 1493 1497 1501 1504 1507 1510 1512 1514 1516 1517 1518 1519 1519 1519 1519 1519 1518 1517 1516 1513 1511 1510 1509 1508 1507 1504 1502 1499 1496 1493 1490 1487 1483 1480 1477 1474 1470 1467 1464 1461 1459 1456
1483 1488 1492 1495 1499 1502 1505 1507 1509 1511 1513 1514 1515 1515 1515 1515 1515 1514 1513 1512 1511 1507 1504 1503 1503 1502 1500 1497 1494 1491 1487 1484 1481 1477 1474 1471 1467 1464 1461 1457 1454 1452 1449
1478 1482 1486 1490 1494 1497 1500 1502 1504 1506 1508 1509 1510 1511 1511 1511 1511 1510 1509 1508 1507 1505 1501 1498 1498 1497 1494 1492 1489 1485 1482 1479 1475 1471 1468 1464 1461 1458 1454 1451 1448 1445 1442
1472 1477 1481 1485 1488 1491 1494 1497 1499 1501 1503 1504 1505 1506 1507 1507 1506 1505 1504 1503 1502 1500 1496 1493 1493 1491 1489 1486 1483 1480 1476 1473 1469 1465 1461 1458 1454 1451 1447 1444 1441 1438 1435
1467 1471 1476 1479 1482 1486 1489 1491 1494 1496 1498 1499 1501 1501 1502 1502 1501 1500 1499 1498 1497 1495 1492 1488 1486 1485 1483 1480 1477 1473 1470 1466 1462 1459 1455 1451 1448 1444 1441 1437 1434 1431 1428
1462 1466 1470 1474 1477 1480 1483 1486 1489 1491 1493 1494 1496 1496 1497 1496 1496 1495 1494 1493 1491 1489 1487 1483 1480 1478 1476 1474 1470 1466 1463 1459 1456 1452 1448 1445 1441 1437 1434 1430 1427 1424 1421
1457 1461 1465 1469 1472 1475 1478 1481 1483 1486 1487 1489 1490 1491 1491 1491 1490 1489 1488 1487 1485 1484 1481 1478 1475 1472 1470 1467 1463 1459 1455 1452 1449 1445 1442 1438 1435 1431 1428 1424 1420 1417 1414
1453 1457 1460 1464 1467 1470 1473 1476 1478 1480 1482 1484 1485 1485 1486 1485 1485 1484 1482 1481 1480 1477 1475 1472 1469 1466 1463 1461 1457 1453 1448 1444 1441 1438 1434 1432 1429 1425 1422 1418 1414 1411 1408
1448 1452 1455 1459 1462 1465 1468 1471 1473 1475 1476 1478 1479 1480 1480 1480 1479 1478 1477 1476 1474 1472 1469 1467 1463 1461 1458 1455 1452 1448 1443 1438 1433 1432 1428 1424 1422 1418 1415 1412 1408 1405 1402
1444 1447 1451 1454 1457 1460 1463 1465 1467 1469 1471 1472 1473 1474 1474 1474 1473 1472 1471 1470 1468 1467 1465 1462 1458 1455 1452 1449 1446 1442 1438 1434 1430 1427 1422 1416 1415 1412 1409 1406 1402 1399 1396
1440 1443 1446 1450 1453 1456 1458 1460 1462 1464 1465 1467 1468 1468 1468 1468 1467 1466 1464 1463 1461 1460 1458 1456 1453 1450 1447 1444 1441 1437 1433 1428 1424 1422 1418 1412 1408 1406 1403 1400 1397 1394 1391
1436 1439 1442 1445 1448 1451 1453 1455 1457 1458 1459 1461 1462 1462 1462 1462 1461 1460 1458 1456 1455 1453 1452 1449 1447 1444 1442 1439 1436 1432 1427 1423 1417 1414 1412 1408 1403 1399 1396 1394 1392 1389 1386
1432 1436 1438 1441 1444 1446 1448 1450 1451 1452 1454 1455 1456 1456 1456 1456 1455 1454 1452 1450 1448 1447 1445 1442 1440 1438 1436 1433 1430 1427 1423 1419 1414 1410 1407 1404 1400 1396 1391 1388 1387 1385 1382